Wind_Speed
24 27 29 29 29 29 29 29 28 27 27 27 28 28 28 28 28 29 29 29 31 32 32 33 32 31 31 30 28 26 25 24 24 23 21 21 20 20 19 19 20 21 21
12 14 16 17 18 18 17 17 16 16 17 18 19 21 22 22 23 24 25 25 26 27 27 27 26 25 24 24 23 22 22 22 22 21 19 19 19 19 19 19 20 20 21
2 3 4 5 5 6 6 6 7 8 8 9 10 11 13 13 15 16 17 18 18 18 18 18 18 19 19 19 19 20 20 20 19 19 18 18 19 19 19 20 20 20 20
8 7 7 5 4 3 2 2 2 3 4 5 5 6 8 9 10 11 13 14 14 14 15 15 16 17 17 18 18 19 19 18 18 18 18 19 19 19 19 20 20 20 20
11 10 9 8 7 6 5 4 4 5 5 6 7 7 8 10 11 11 13 14 15 16 16 17 17 17 18 18 18 18 18 18 18 19 19 19 19 19 19 19 20 19 19
13 12 11 10 9 8 8 8 8 9 10 11 12 13 14 14 15 15 16 17 18 18 18 18 18 18 18 18 19 18 18 18 19 19 19 19 19 19 19 19 19 18 18
15 15 14 13 12 11 10 10 10 11 12 13 14 15 17 18 19 19 20 20 21 21 21 21 20 20 20 20 19 19 18 18 18 18 18 18 18 19 19 19 18 18 18
18 17 16 15 14 13 12 12 12 13 14 15 15 17 18 20 21 22 23 23 23 22 22 22 22 21 21 20 20 19 18 18 18 17 17 17 17 18 19 19 18 18 18
19 18 18 17 16 16 15 14 14 14 14 15 15 17 18 19 21 22 23 23 23 23 23 22 22 22 21 20 19 19 18 17 17 16 15 15 16 17 17 17 17 17 17
20 19 19 19 18 17 17 16 15 15 14 14 15 15 16 17 18 19 19 20 21 21 20 21 21 21 20 19 19 18 17 16 16 15 14 14 14 14 15 15 15 15 15
20 20 20 20 20 19 18 18 17 16 15 15 14 14 14 14 14 14 15 16 17 18 18 18 18 18 18 18 18 18 17 15 14 14 13 11 11 11 12 12 12 13 13
21 22 22 22 21 21 20 20 20 18 18 17 16 15 14 14 13 12 12 12 13 13 15 15 16 16 17 17 17 16 16 15 13 12 11 10 9 8 8 8 9 9 10
21 22 23 23 24 23 22 22 22 22 20 20 19 18 17 16 14 12 10 8 8 10 11 13 14 15 15 15 15 15 14 13 12 11 10 9 7 6 5 5 5 6 7
21 21 22 23 24 24 24 24 24 24 24 23 22 22 21 20 17 15 11 8 6 4 5 7 9 11 12 13 13 13 13 12 11 10 9 7 6 5 4 3 4 5 6
20 20 20 22 23 23 23 24 25 25 26 25 25 25 25 25 23 20 17 13 10 6 3 3 5 8 9 10 11 11 12 11 10 9 7 7 5 4 3 2 2 3 5
20 20 19 20 21 22 23 23 24 25 26 26 26 27 27 28 27 26 24 21 18 15 12 10 9 9 9 10 11 11 11 11 10 9 7 7 5 3 2 1 1 3 4
19 20 19 19 20 21 22 22 23 23 24 26 27 27 28 28 29 29 28 27 24 22 20 18 16 14 13 12 12 12 13 12 11 9 8 7 5 4 4 3 3 4 6
18 19 19 19 19 19 20 21 21 22 22 23 25 26 27 28 28 28 28 28 27 26 24 22 20 18 17 16 15 14 13 12 11 10 9 8 7 6 5 5 5 6 8
16 17 18 19 18 18 18 19 20 20 21 22 22 23 24 25 26 26 26 27 27 26 25 24 23 21 20 18 17 16 15 14 13 12 10 9 8 8 7 7 7 7 9
13 15 17 18 18 18 18 18 18 18 19 20 20 21 22 22 23 23 24 24 24 24 24 23 22 22 21 20 19 18 16 15 14 13 12 10 9 8 8 8 8 8 9
11 13 14 16 17 17 17 17 17 17 17 18 18 19 19 20 20 21 21 21 21 21 22 21 21 20 20 19 18 17 16 15 14 13 12 11 10 9 8 8 8 9 10
9 10 11 13 14 15 16 16 16 17 16 16 17 17 17 17 18 18 18 18 18 19 19 19 19 18 18 17 16 16 15 14 14 13 12 11 10 9 9 9 9 10 10
8 8 9 10 12 13 14 15 15 15 15 15 15 15 16 16 16 16 16 16 16 16 17 16 16 16 16 16 15 15 14 14 13 12 11 11 10 9 9 9 10 10 11
8 8 8 8 9 10 12 13 14 14 14 14 14 14 14 14 14 14 15 15 15 15 15 15 15 15 15 15 15 14 13 13 12 11 11 10 10 10 10 10 10 11 11
8 8 8 8 8 8 9 10 11 12 12 12 12 12 12 11 12 12 12 12 13 13 14 14 14 15 14 14 14 13 13 12 12 11 10 10 10 10 10 10 10 11 12
10 10 9 9 9 9 9 9 9 9 10 10 10 10 9 9 9 8 9 9 9 10 10 11 11 12 12 12 12 12 11 11 10 10 9 9 9 9 10 10 11 12 13
Wind_Direction
262 262 263 265 268 270 272 272 270 268 265 262 261 260 259 258 258 259 260 258 255 255 257 256 254 252 251 250 248 248 251 255 257 258 259 260 262 264 266 268 270 270 267
269 267 266 266 268 269 269 268 267 264 262 260 259 257 256 254 253 252 250 251 252 253 252 250 248 247 246 245 245 248 251 253 255 255 256 257 258 261 264 267 268 269 268
346 311 281 272 267 266 268 270 271 266 262 255 248 244 241 239 239 240 240 243 245 247 248 248 246 244 245 247 249 251 252 253 254 255 254 255 256 259 261 264 267 267 268
56 55 54 51 48 43 23 324 293 275 254 242 234 235 234 229 231 237 239 240 244 247 249 250 250 249 249 250 251 253 255 256 256 256 256 255 255 257 259 262 265 266 269
57 55 51 45 39 30 16 357 333 314 300 289 276 268 261 256 253 254 255 255 255 255 254 253 252 252 252 252 254 256 258 258 258 258 258 257 257 258 260 262 265 267 268
51 47 41 34 25 13 358 344 329 316 307 299 292 287 283 280 275 272 267 264 262 262 261 259 258 257 256 256 257 257 258 258 258 258 259 258 258 259 260 261 263 265 268
46 41 36 29 20 9 357 345 333 323 313 304 296 289 284 281 279 276 273 271 268 265 263 262 262 260 259 258 258 257 257 258 259 260 259 259 258 258 259 259 261 262 265
46 41 35 26 17 7 356 347 336 325 316 308 300 294 288 282 279 276 273 271 268 265 262 261 260 258 258 257 257 257 257 258 259 260 259 259 258 259 259 260 260 261 263
42 38 32 26 20 13 4 354 347 339 330 320 311 303 295 288 283 278 274 270 267 264 260 257 255 254 254 254 254 254 254 256 258 259 260 258 258 258 259 260 259 260 263
38 34 29 24 20 15 10 5 0 353 344 335 327 320 310 299 291 285 279 272 267 263 259 255 253 251 250 249 248 248 248 250 252 253 254 254 256 258 259 260 261 261 263
35 32 28 25 23 22 19 16 11 7 0 354 347 341 334 324 311 300 290 277 268 261 257 253 250 247 245 243 243 243 242 243 243 244 245 249 253 255 256 259 261 264 268
36 34 31 30 29 28 26 23 21 20 16 12 6 0 355 348 337 322 305 286 271 261 254 250 246 241 240 241 240 239 238 237 236 235 236 240 245 248 252 257 263 268 273
35 35 34 34 34 34 32 30 29 28 26 23 20 16 12 7 360 351 338 316 287 265 253 246 240 236 235 234 231 229 227 228 227 225 227 228 232 240 243 250 262 273 282
33 34 34 34 35 35 34 34 33 32 32 31 31 29 26 23 20 16 10 0 342 301 260 239 228 223 222 220 216 214 213 212 211 210 210 213 215 217 224 244 270 288 297
33 33 33 33 33 33 33 33 34 34 35 35 35 34 33 33 33 33 34 34 35 42 74 144 177 186 191 193 191 191 192 191 190 189 189 188 189 193 209 251 290 317 330
33 32 31 31 32 32 32 33 33 34 35 36 36 36 37 38 40 42 45 48 53 61 75 92 112 131 143 151 158 165 170 171 171 169 169 170 169 166 158 118 25 8 6
33 32 31 29 29 30 31 31 32 33 34 36 37 38 40 41 44 47 49 53 58 64 73 83 93 105 115 123 130 137 144 148 151 151 150 147 140 128 111 94 68 43 30
31 31 30 29 28 27 27 29 30 32 33 35 37 39 40 42 45 48 51 55 60 66 72 78 85 92 99 106 113 119 123 126 128 129 128 123 117 109 98 84 64 44 30
27 28 28 28 27 25 24 25 28 31 33 35 36 38 40 42 45 48 51 55 59 64 69 74 80 85 91 95 99 103 106 109 111 112 109 105 100 93 83 70 54 39 28
21 23 25 26 27 26 24 24 25 28 31 33 36 38 40 42 45 48 52 55 59 63 68 72 77 81 84 88 91 93 96 97 98 97 96 93 87 79 69 58 46 35 25
13 16 19 21 23 24 24 24 25 27 29 32 34 37 40 43 46 49 52 55 59 63 67 71 74 77 80 83 85 86 87 87 87 87 85 81 76 68 58 48 38 29 22
360 7 12 15 19 21 22 23 24 26 28 31 33 36 39 42 45 49 52 55 58 61 65 69 72 74 76 78 79 80 80 81 81 79 76 71 65 58 51 44 37 30 24
342 350 359 7 12 15 17 20 22 24 26 29 32 35 39 42 45 49 52 56 58 60 63 66 68 70 72 73 74 74 74 74 73 70 67 63 57 51 45 39 33 28 24
326 330 336 347 358 5 10 15 17 20 22 26 29 33 38 41 44 48 51 55 59 61 62 64 66 68 69 70 71 71 70 69 67 63 59 54 49 44 39 35 30 25 20
315 317 317 322 332 343 353 1 8 12 15 19 24 28 33 38 43 46 50 54 58 61 62 63 64 65 66 67 67 67 66 65 62 58 53 46 40 34 29 24 19 14 9
303 304 304 304 307 316 326 337 347 356 3 8 13 18 23 30 36 41 46 50 54 58 60 62 62 62 62 62 61 60 59 56 52 47 40 31 23 16 10 4 360 356 353
Height
5789 5790 5791 5791 5791 5791 5791 5790 5790 5790 5790 5790 5791 5792 5793 5794 5795 5796 5797 5798 5799 5799 5800 5800 5801 5803 5804 5806 5808 5810 5813 5815 5816 5817 5818 5818 5818 5818 5818 5818 5818 5818 5817
5785 5785 5785 5785 5785 5785 5785 5784 5784 5784 5784 5784 5784 5785 5786 5787 5788 5788 5789 5790 5791 5791 5792 5793 5794 5795 5797 5799 5802 5804 5807 5808 5809 5810 5811 5812 5812 5813 5813 5813 5813 5812 5812
5784 5783 5783 5782 5782 5782 5781 5781 5780 5780 5780 5780 5780 5780 5781 5781 5782 5783 5783 5784 5785 5785 5786 5787 5788 5790 5792 5794 5796 5798 5800 5802 5803 5804 5805 5806 5807 5807 5807 5807 5807 5807 5807
5785 5784 5783 5783 5782 5781 5780 5780 5779 5779 5778 5778 5778 5777 5777 5778 5778 5778 5779 5779 5780 5781 5781 5783 5784 5785 5787 5789 5791 5793 5794 5795 5797 5798 5799 5800 5801 5802 5802 5802 5802 5802 5802
5787 5786 5785 5784 5783 5782 5781 5780 5779 5779 5778 5777 5776 5775 5775 5775 5775 5775 5775 5776 5776 5777 5778 5778 5780 5781 5783 5784 5786 5787 5788 5790 5791 5792 5793 5795 5795 5796 5796 5796 5797 5797 5797
5790 5788 5787 5786 5784 5783 5782 5780 5779 5778 5776 5775 5774 5773 5772 5771 5771 5771 5771 5772 5772 5773 5773 5774 5775 5776 5777 5779 5780 5781 5783 5784 5786 5787 5788 5789 5790 5790 5791 5791 5792 5792 5792
5792 5790 5789 5787 5785 5783 5781 5780 5778 5776 5774 5772 5771 5770 5768 5767 5767 5766 5766 5766 5766 5767 5768 5768 5769 5770 5772 5773 5775 5776 5777 5779 5780 5782 5783 5783 5784 5785 5786 5786 5787 5787 5787
5795 5793 5791 5788 5786 5784 5781 5779 5776 5774 5771 5769 5767 5765 5764 5762 5761 5760 5760 5759 5759 5760 5761 5762 5763 5764 5766 5767 5769 5771 5772 5774 5775 5776 5777 5778 5779 5780 5781 5782 5782 5783 5783
5798 5795 5793 5790 5787 5784 5780 5777 5774 5771 5768 5765 5763 5760 5758 5756 5754 5753 5752 5752 5752 5753 5754 5755 5757 5758 5759 5761 5763 5765 5767 5769 5770 5771 5773 5773 5774 5775 5776 5777 5777 5778 5778
5801 5798 5794 5791 5787 5784 5780 5777 5773 5770 5766 5763 5760 5756 5753 5750 5748 5746 5745 5744 5744 5745 5746 5748 5750 5752 5754 5756 5758 5760 5762 5764 5765 5767 5768 5769 5770 5771 5772 5772 5773 5773 5774
5803 5800 5796 5792 5789 5785 5781 5778 5774 5769 5765 5761 5758 5754 5750 5746 5743 5741 5739 5738 5738 5738 5740 5741 5743 5746 5748 5750 5752 5755 5757 5759 5761 5763 5765 5766 5767 5767 5768 5769 5769 5770 5770
5806 5802 5799 5795 5791 5787 5783 5779 5774 5770 5766 5761 5757 5753 5749 5745 5741 5738 5735 5733 5732 5733 5734 5736 5738 5740 5743 5745 5748 5750 5753 5755 5758 5760 5761 5763 5764 5765 5765 5766 5766 5767 5767
5809 5805 5802 5798 5793 5789 5785 5781 5777 5772 5768 5763 5758 5754 5749 5745 5740 5736 5732 5730 5729 5729 5729 5731 5733 5735 5738 5741 5743 5746 5749 5752 5754 5757 5759 5760 5762 5763 5763 5764 5765 5765 5765
5812 5809 5805 5801 5797 5793 5789 5784 5780 5775 5770 5766 5761 5756 5751 5746 5741 5736 5732 5729 5727 5726 5726 5726 5728 5731 5734 5737 5740 5743 5746 5750 5752 5755 5757 5759 5760 5761 5762 5763 5763 5763 5763
5815 5811 5808 5804 5800 5796 5792 5788 5783 5779 5774 5770 5765 5760 5754 5749 5743 5738 5733 5730 5727 5725 5724 5725 5726 5729 5732 5735 5738 5742 5745 5748 5751 5754 5756 5758 5759 5761 5761 5762 5762 5762 5762
5818 5814 5811 5807 5804 5800 5796 5792 5787 5783 5779 5774 5769 5764 5759 5754 5748 5743 5738 5733 5730 5728 5727 5727 5728 5730 5733 5736 5738 5742 5745 5748 5751 5754 5756 5758 5759 5760 5761 5761 5762 5761 5761
5820 5817 5814 5810 5807 5803 5799 5796 5792 5788 5783 5779 5774 5769 5765 5760 5755 5750 5745 5741 5738 5735 5733 5733 5733 5735 5737 5739 5741 5744 5747 5750 5752 5755 5757 5758 5760 5761 5761 5762 5762 5761 5761
5823 5820 5817 5813 5810 5806 5803 5799 5795 5791 5787 5783 5779 5775 5771 5766 5762 5758 5754 5750 5747 5744 5742 5741 5741 5742 5743 5744 5746 5748 5750 5753 5755 5757 5758 5760 5761 5762 5762 5762 5762 5762 5761
5825 5822 5819 5816 5812 5809 5806 5802 5799 5795 5791 5788 5784 5780 5776 5772 5769 5765 5762 5759 5756 5753 5752 5751 5750 5750 5750 5751 5753 5754 5755 5757 5758 5760 5761 5762 5763 5763 5763 5763 5763 5762 5761
5827 5824 5821 5818 5815 5812 5809 5805 5802 5798 5795 5792 5788 5785 5781 5778 5775 5772 5769 5766 5764 5762 5760 5759 5758 5758 5758 5758 5759 5760 5761 5761 5762 5763 5764 5764 5765 5765 5765 5764 5764 5763 5761
5828 5826 5823 5820 5817 5814 5811 5808 5805 5802 5799 5795 5792 5789 5786 5783 5780 5777 5775 5773 5771 5769 5768 5767 5766 5765 5765 5765 5765 5765 5766 5766 5766 5766 5767 5767 5767 5767 5766 5765 5764 5763 5761
5829 5827 5825 5822 5819 5817 5814 5811 5808 5805 5802 5799 5796 5793 5790 5787 5785 5783 5780 5778 5777 5775 5774 5773 5772 5771 5771 5770 5770 5770 5770 5770 5770 5770 5770 5769 5769 5768 5767 5766 5765 5764 5762
5829 5827 5825 5823 5821 5819 5816 5813 5810 5808 5805 5802 5799 5797 5794 5792 5789 5787 5785 5783 5781 5780 5779 5778 5777 5776 5775 5774 5774 5774 5774 5773 5773 5773 5772 5772 5771 5770 5769 5768 5766 5764 5762
5828 5827 5825 5824 5822 5820 5817 5815 5812 5810 5807 5805 5803 5800 5798 5795 5793 5791 5789 5787 5786 5784 5783 5782 5781 5780 5779 5778 5778 5777 5777 5776 5776 5775 5775 5774 5773 5772 5770 5769 5767 5765 5763
5827 5826 5824 5823 5822 5820 5818 5816 5814 5812 5809 5807 5805 5803 5801 5799 5797 5795 5793 5792 5790 5789 5787 5786 5785 5784 5783 5782 5781 5781 5780 5779 5779 5778 5777 5776 5775 5773 5772 5770 5768 5766 5764
5825 5824 5823 5821 5820 5819 5817 5816 5814 5812 5810 5808 5806 5805 5803 5801 5799 5798 5796 5795 5794 5792 5791 5790 5789 5788 5787 5786 5785 5784 5783 5782 5781 5780 5779 5778 5776 5775 5773 5771 5768 5766 5763